FW4061 Weather Reports


Display with metric or nautical units.
time (UTC)temp
F
wind
direction
speed
MPH
gust
MPH
rain 1hr
in
rain 24hr
in
rain mn
in
humidity
%
barometer
mb
20190917075959 76 0 0.0 0.0 0.00 0.00 0.00 78 1014.3
20190917065959 78 109 1.0 5.0 0.00 0.00 0.00 75 1014.3
20190917060000 80 109 2.0 8.0 0.00 0.00 0.00 70 1014.2
20190917050000 81 110 0.0 3.0 0.00 0.00 0.00 71 1014.5
20190917040000 82 110 1.0 10.0 0.00 0.00 0.00 70 1014.7
20190917030000 84 109 5.0 16.0 0.00 0.00 0.00 66 1014.6
20190917020002 89 109 1.0 6.0 0.00 0.00 0.00 48 1013.4
20190917010000 90 109 2.0 7.0 0.00 0.00 0.00 45 1013.1
20190917000000 92 109 2.0 7.0 0.00 0.00 0.00 42 1012.9
20190916230001 94 109 4.0 10.0 0.00 0.00 0.00 39 1012.8
20190916220001 94 108 5.0 16.0 0.00 0.00 0.00 39 1013.1
20190916210001 94 108 5.0 13.0 0.00 0.00 0.00 41 1013.5
20190916200001 94 109 5.0 12.0 0.00 0.00 0.00 40 1014.3
20190916190001 92 109 5.0 16.0 0.00 0.00 0.00 44 1015.4
20190916180001 90 109 3.0 11.0 0.00 0.00 0.00 49 1016.1
20190916170001 90 109 3.0 9.0 0.00 0.00 0.00 51 1017.0
20190916160001 89 110 0.0 4.0 0.00 0.00 0.00 53 1017.6
20190916150001 87 110 0.0 3.0 0.00 0.00 0.00 59 1017.5
20190916140002 81 109 0.0 1.0 0.00 0.00 0.00 71 1017.3
20190916130002 75 0 0.0 0.0 0.00 0.00 0.00 82 1017.0
20190916120004 73 0 0.0 0.0 0.00 0.00 0.00 84 1016.7
20190916110002 74 0 0.0 0.0 0.00 0.00 0.00 82 1016.6
20190916100001 74 0 0.0 0.0 0.00 0.00 0.00 81 1016.6
20190916090002 75 0 0.0 0.0 0.00 0.00 0.00 79 1016.7